IK3JLT-13 Weather Reports


time (UTC)temp
C
wind
direction
speed
KPH
gust
KPH
rain 1hr
cm
rain 24hr
cm
rain mn
cm
humidity
%
barometer
mb
20260506174720 16 45 3.2 4.8 0.00 1.09 0.00 84 1008.2
20260506173720 16 135 3.2 3.2 0.00 1.12 0.00 83 1008.3
20260506172719 16 0 3.2 3.2 0.00 1.12 0.00 83 1008.1
20260506171720 16 180 3.2 3.2 0.00 1.12 0.00 83 1008.2
20260506170719 16 135 4.8 6.4 0.00 1.12 0.00 81 1008.0
20260506165718 16 135 4.8 6.4 0.00 1.17 0.00 80 1007.9
20260506164716 17 180 3.2 3.2 0.00 1.17 0.00 76 1008.1
20260506163716 17 135 3.2 3.2 0.00 1.17 0.00 74 1008.1
20260506162716 17 135 3.2 3.2 0.00 1.17 0.00 74 1008.2
20260506161715 17 180 0.0 0.0 0.03 1.17 0.00 73 1008.1
20260506160714 17 315 4.8 6.4 0.03 1.22 0.00 74 1008.0
20260506155715 17 315 6.4 6.4 0.05 1.24 0.00 79 1007.9
20260506154713 16 315 3.2 3.2 0.05 1.24 0.00 82 1007.9
20260506153714 16 270 3.2 4.8 0.08 1.27 0.00 85 1008.0
20260506152712 16 0 9.7 11.3 0.13 1.37 0.00 90 1008.1
20260506151712 16 270 4.8 6.4 0.18 1.35 0.00 91 1008.1
20260506150710 16 270 6.4 8.0 0.20 1.35 0.00 91 1008.3
20260506145712 16 315 6.4 8.0 0.20 1.30 0.00 90 1008.4
20260506144709 16 315 3.2 3.2 0.18 1.27 0.00 88 1008.2
20260506143709 16 270 1.6 3.2 0.13 1.27 0.00 87 1008.3
20260506142709 16 90 1.6 3.2 0.08 1.22 0.00 86 1008.3
20260506141708 16 90 4.8 6.4 0.03 1.17 0.00 85 1008.3
20260506140707 16 135 12.9 14.5 0.00 1.12 0.00 83 1008.4
20260506135706 17 90 6.4 9.7 0.00 1.12 0.00 81 1008.3
20260506134706 17 0 4.8 6.4 0.00 1.12 0.00 76 1008.4
20260506133706 17 45 3.2 4.8 0.00 1.12 0.00 76 1008.4
20260506132706 17 180 1.6 3.2 0.00 1.17 0.00 78 1008.5
20260506131706 17 0 3.2 4.8 0.00 1.17 0.00 81 1008.6
20260506130706 17 45 6.4 8.0 0.00 1.17 0.00 83 1008.8
20260506125706 16 315 6.4 8.0 0.03 1.17 0.00 88 1008.9
20260506124706 16 315 6.4 8.0 0.05 1.17 0.00 90 1009.1
20260506123706 16 0 6.4 6.4 0.08 1.17 0.00 91 1009.0
20260506122706 15 315 6.4 8.0 0.10 1.17 0.00 91 1009.0
20260506121705 15 315 6.4 8.0 0.10 1.19 0.00 90 1008.9
20260506120707 15 0 6.4 8.0 0.10 1.17 0.00 90 1009.0
20260506115706 16 315 6.4 9.7 0.10 1.19 0.00 88 1009.1
20260506114705 16 315 8.0 9.7 0.10 1.19 0.00 88 1009.1
20260506113706 16 315 8.0 11.3 0.18 1.12 0.00 88 1009.0
20260506112707 16 270 3.2 3.2 0.36 1.12 0.00 88 1009.0
20260506111706 16 315 3.2 4.8 0.30 1.09 0.00 89 1008.9
20260506110706 16 270 6.4 6.4 0.30 1.09 0.00 91 1009.1
20260506105706 16 225 1.6 3.2 0.30 1.09 0.00 90 1009.2
20260506104706 16 180 3.2 3.2 0.23 1.04 0.00 88 1009.3
20260506103706 16 180 11.3 12.9 0.00 0.84 0.00 85 1009.4
20260506102705 17 0 6.4 8.0 0.00 0.84 0.00 84 1009.3
20260506101706 17 270 3.2 3.2 0.00 0.86 0.00 84 1009.3
20260506100706 17 45 4.8 6.4 0.00 0.86 0.00 85 1009.3
20260506095706 17 0 6.4 8.0 0.00 0.86 0.00 87 1009.3
20260506094706 16 45 8.0 11.3 0.00 0.86 0.00 89 1009.3
20260506093706 16 45 9.7 12.9 0.00 0.86 0.00 90 1009.5
20260506092707 16 90 8.0 9.7 0.00 0.86 0.00 90 1009.4
20260506091706 16 45 11.3 12.9 0.00 0.86 0.00 89 1009.4
20260506090705 16 0 12.9 16.1 0.00 0.86 0.00 89 1009.3
20260506085706 16 45 12.9 14.5 0.00 0.86 0.00 90 1009.2
20260506084706 16 45 12.9 14.5 0.00 0.86 0.00 90 1009.0
20260506083708 16 90 8.0 11.3 0.00 0.86 0.00 89 1009.1
20260506082706 16 90 14.5 17.7 0.00 0.86 0.00 86 1009.0
20260506081706 16 90 16.1 22.5 0.00 0.86 0.00 86 1008.9
20260506080707 16 90 16.1 20.9 0.00 0.86 0.00 85 1008.9
20260506072706 15 45 12.9 16.1 0.00 0.86 0.00 87 1009.1
20260506071707 15 45 11.3 12.9 0.00 0.86 0.00 87 1009.2
20260506070706 15 90 12.9 17.7 0.00 0.86 0.00 87 1009.3
20260506061706 15 90 8.0 11.3 0.00 0.86 0.00 88 1009.4
20260506060706 15 90 12.9 14.5 0.00 0.86 0.00 89 1009.2
20260506050705 14 90 12.9 16.1 0.00 0.86 0.00 90 1009.2
20260506044706 14 90 6.4 9.7 0.00 0.86 0.00 89 1009.2
20260506043707 14 90 4.8 6.4 0.00 0.86 0.00 89 1009.2
20260506042706 14 90 6.4 8.0 0.00 0.86 0.00 90 1009.1
20260506041706 13 45 11.3 16.1 0.00 0.86 0.00 90 1009.1
20260506040706 13 90 6.4 9.7 0.00 0.86 0.00 91 1009.3
20260506035707 13 45 8.0 12.9 0.00 0.86 0.00 91 1009.4
20260506034707 13 45 6.4 8.0 0.00 0.86 0.00 91 1009.6
20260506033707 13 90 4.8 6.4 0.00 0.86 0.00 91 1009.7
20260506032708 13 90 6.4 8.0 0.03 0.86 0.00 91 1009.7
20260506031706 13 45 6.4 6.4 0.03 0.86 0.00 92 1009.8
20260506030706 13 90 3.2 6.4 0.03 0.86 0.00 93 1009.8
20260506025706 13 90 6.4 9.7 0.03 0.86 0.00 94 1009.8
20260506024705 13 90 6.4 11.3 0.03 0.86 0.00 95 1009.8
20260506023705 13 90 4.8 6.4 0.03 0.86 0.00 96 1009.9
20260506022705 13 90 8.0 9.7 0.00 0.84 0.00 96 1009.8
20260506021706 12 45 9.7 12.9 0.00 0.84 0.00 96 1010.2
20260506020705 12 22 6.4 6.4 0.00 0.84 0.00 96 1010.3
20260506015705 12 90 3.2 3.2 0.00 0.84 0.00 96 1010.5
20260506014705 12 90 3.2 4.8 0.00 0.84 0.00 95 1010.6
20260506013706 12 45 3.2 4.8 0.00 0.84 0.00 95 1010.3
20260506012705 12 45 6.4 6.4 0.00 0.84 0.00 95 1010.3
20260506011705 12 45 3.2 3.2 0.00 0.84 0.00 95 1010.4
20260506010705 12 90 0.0 1.6 0.00 0.84 0.00 95 1010.4
20260506005705 13 0 3.2 3.2 0.00 0.84 0.00 95 1010.5
20260506004705 13 90 3.2 4.8 0.00 0.84 0.00 95 1010.2
20260506003705 13 45 3.2 3.2 0.00 0.84 0.00 95 1010.3
20260506002704 13 135 3.2 3.2 0.00 0.84 0.00 96 1010.4
20260506001705 13 0 1.6 3.2 0.00 0.84 0.00 96 1010.6
20260506000705 13 315 3.2 4.8 0.00 0.84 0.00 96 1010.6
20260505235621 13 0 1.6 3.2 0.00 0.84 0.00 96 1010.5
20260505234620 13 0 4.8 6.4 0.00 0.84 0.00 96 1010.7
20260505233618 13 45 1.6 3.2 0.00 0.84 0.00 96 1011.0
20260505232617 13 315 3.2 3.2 0.00 0.84 0.00 96 1011.2
20260505231617 13 0 3.2 3.2 0.00 0.84 0.00 96 1011.2
20260505230617 13 0 4.8 6.4 0.00 0.84 0.00 96 1011.3
20260505225615 13 0 1.6 3.2 0.00 0.84 0.00 96 1011.5
20260505224615 13 45 3.2 3.2 0.00 0.84 0.00 96 1011.3
20260505223614 13 45 4.8 6.4 0.00 0.84 0.00 96 1011.3
20260505222614 13 90 3.2 4.8 0.00 0.84 0.00 96 1011.3
20260505221613 13 90 3.2 4.8 0.00 0.84 0.00 96 1011.4
20260505220612 13 90 4.8 6.4 0.00 0.84 0.00 97 1011.4
20260505215613 13 90 4.8 6.4 0.00 0.84 0.00 97 1011.5
20260505214612 13 90 3.2 4.8 0.00 0.84 0.00 97 1011.5
20260505213612 13 90 3.2 4.8 0.00 0.84 0.00 97 1011.7
20260505212610 13 90 4.8 6.4 0.00 0.84 0.00 97 1011.7
20260505211609 13 45 3.2 4.8 0.00 0.84 0.00 97 1011.7
20260505210608 13 22 6.4 8.0 0.00 0.84 0.00 97 1011.9
20260505205607 13 135 3.2 6.4 0.03 0.84 0.00 97 1011.9